User: anonymous
Location: Ottawa
(45.4170°N, 75.7000°W)
Time: 06:07:04
(UTC-04:00)
Language:

Aureole 3 Rocket - Orbit

View from above orbital plane
View from above orbital plane
View from above satellite
View from above satellite

Ground track
Ground track

The orbit data is extracted from the following two-line orbital elements,

1 12849U 81094B   14107.85397936  .00001085  00000-0  10332-3 0  8657
2 12849 082.4943 332.8931 0911657 280.0996 069.8627 13.47883159585980
Epoch (UTC): 17 April 2014 20:29:43
Eccentricity: 0.0911657
inclination: 82.4943°
perigee height: 400 km
apogee height: 1760 km
right ascension of ascending node: 332.8931°
argument of perigee: 280.0996°
revolutions per day: 13.47883159
mean anomaly at epoch: 69.8627°
orbit number at epoch: 58598

The dashed part of the orbit path shows where the satellite is in the earth's shadow,  

DLR